Header for Extended Forecast Station List Page

Search by: ID | Name | Date | Parm | Value | Avg | % Avg
Sort by: ID | Name | Date | Parm | Value | Avg | % Avg

Enter search or view all records.

Click on id for station plot
#IDNameDateParmValueAvg% Avg
0ABOM8CLARK FORK-ABOVE MISSOULA01-30-2023DISCHARGE (KAF)62281576
1AFRI1SNAKE-AMERICAN FALLS RESERVOIR01-30-2023INFLOW (KAF)17251559111
2ALFW1PEND OREILLE-ALBENI FALLS DAM01-30-2023INFLOW (KAF)4913705670
3ALPW4SNAKE-NEAR ALPINE01-30-2023DISCHARGE (KAF)62885773
4ANAW1SNAKE-NEAR ANATONE01-30-2023DISCHARGE (KAF)6647976068
5ANTI1HENRYS FORK-AT ST. ANTHONY01-30-2023DISCHARGE (KAF)46752888
6ARAI1SF BOISE-ANDERSON RANCH DAM01-30-2023INFLOW (KAF)29629999
7ARDW1ENTIAT-NEAR ARDENVOIR01-30-2023DISCHARGE (KAF)649468
8BELM8CLARK FORK-BELOW MISSOULA01-30-2023DISCHARGE (KAF)947146665
9BERO3MALHEUR-AGENCY VALLEY DAM01-30-2023INFLOW (KAF)454992
10BFEI1KOOTENAI-AT BONNERS FERRY01-30-2023STAGE (FT)MMM
11BFTI1SNAKE-NEAR BLACKFOOT01-30-2023DISCHARGE (KAF)1106912121
12BIGI1BOISE-AT GLENWOOD BRIDGE01-30-2023DISCHARGE (KAF)330169196
13BITM8BITTERROOT-NEAR MISSOULA01-30-2023DISCHARGE (KAF)32362452
14BONM8BLACKFOOT-NEAR BONNER01-30-2023DISCHARGE (KAF)40346587
15BONO3COLUMBIA-BONNEVILLE DAM01-30-2023INFLOW (KAF)359175056671
16BRNI1SNAKE-BROWNLEE DAM01-30-2023INFLOW (KAF)3758420989
17BUDW1BUMPING-BUMPING LAKE DAM01-30-2023INFLOW (KAF)7675101
18BULO3BULLY CREEK-BULLY CREEK DAM01-30-2023INFLOW (KAF)305584
19CABI1CLARK FORK-CABINET GORGE DAM01-30-2023INFLOW (KAF)3775596163
20CFMM8FLATHEAD-AT COLUMBIA FALLS01-30-2023DISCHARGE (KAF)1849247475
21CHDW1CHELAN-LAKE CHELAN DAM01-30-2023INFLOW (KAF)35354465
22CHEI1FALL RIVER-NEAR CHESTER01-30-2023DISCHARGE (KAF)19922987
23CHJW1COLUMBIA-CHIEF JOSEPH DAM01-30-2023INFLOW (KAF)182362613570
24CIBW1COLUMBIA-AT INTL BOUNDARY01-30-2023DISCHARGE (KAF)147772092971
25CLFW1NACHES-NEAR CLIFFDEL01-30-2023DISCHARGE (KAF)25327393
26CLUW1CLE ELUM-CLE ELUM LAKE01-30-2023INFLOW (KAF)266255104
27COEI1COEUR D ALENE-COEUR D ALENE LAKE01-30-2023INFLOW (KAF)2361250994
28CSDI1NF PAYETTE-CASCADE DAM01-30-2023INFLOW (KAF)26234077
29DEDI1DEADWOOD-NEAR LOWMAN01-30-2023INFLOW (KAF)677688
30DLGM8CLARK FORK-AT DEER LODGE01-30-2023DISCHARGE (KAF)456371
31DRMM8CLARK FORK-NR DRUMMOND01-30-2023DISCHARGE (KAF)12917673
32DWRI1NF CLEARWATER-DWORSHAK DAM01-30-2023INFLOW (KAF)2038204999
33EASW1YAKIMA-AT EASTON01-30-2023DISCHARGE (KAF)8410084
34EMMI1PAYETTE-NEAR EMMETT01-30-2023DISCHARGE (KAF)61385971
35FCFM8NF FLATHEAD-NEAR COLUMBIA FALLS01-30-2023DISCHARGE (KAF)46480058
36GCDW1COLUMBIA-GRAND COULEE DAM01-30-2023INFLOW (KAF)180802446674
37GIBO3UMATILLA-NEAR GIBBON01-30-2023DISCHARGE (KAF)859094
38HALI1BIG WOOD-AT HAILEY01-30-2023DISCHARGE (KAF)7110766
39HEII1SNAKE-NEAR HEISE01-30-2023DISCHARGE (KAF)14001300108
40HHWM8SF FLATHEAD-HUNGRY HORSE DAM01-30-2023INFLOW (KAF)905106785
41HODO3HOOD-NEAR TUCKER BRIDGE01-30-2023DISCHARGE (KAF)289266109
42HOPI1PEND OREILLE-PEND OREILLE LAKE NR HOPE01-30-2023LAKE ELEVATION (FT)MMM
43HOTI1BRUNEAU-NEAR HOT SPRINGS01-30-2023DISCHARGE (KAF)7711667
44HWRI1BIG LOST-AT HOWELL RANCH NEAR CHILLY01-30-2023DISCHARGE (KAF)415279
45IHDW1SNAKE-ICE HARBOR DAM01-30-2023INFLOW (KAF)114241527275
46IPDI1HENRYS FORK-ISLAND PARK DAM01-30-2023INFLOW (KAF)12414784
47JDAO3COLUMBIA-JOHN DAY DAM01-30-2023INFLOW (KAF)343644797372
48JKSW4SNAKE-NEAR JACKSON01-30-2023DISCHARGE (KAF)47465972
49JLKW4SNAKE-JACKSON LAKE AT DAM01-30-2023INFLOW (KAF)31436985
50KADW1KACHESS-KACHESS DAM01-30-2023INFLOW (KAF)9389105
51KEDW1YAKIMA-KEECHELUS LAKE01-30-2023INFLOW (KAF)10795112
52KERM8FLATHEAD-SELI’Š KSANKA QLISPE’ DAM01-30-2023INFLOW (KAF)2135314668
53KIOW1YAKIMA-AT KIONA01-30-2023DISCHARGE (KAF)781104075
54LAUW1KETTLE-AT LAURIER01-30-2023DISCHARGE (KAF)715114463
55LEOI1KOOTENAI-AT LEONIA01-30-2023DISCHARGE (KAF)28422620108
56LGDW1SNAKE-LOWER GRANITE DAM01-30-2023INFLOW (KAF)112341503875
57LGSW1SNAKE-LITTLE GOOSE DAM01-30-2023INFLOW (KAF)112341508474
58LLKW1SPOKANE-AT LONGLAKE01-30-2023INFLOW (KAF)2485289586
59LMNW1SNAKE-LOWER MONUMENTAL DAM01-30-2023INFLOW (KAF)114261525675
60LUCI1BOISE-LUCKY PEAK DAM01-30-2023INFLOW (KAF)863728119
61LWRI1LITTLE WOOD-LITTLE WOOD DAM01-30-2023INFLOW (KAF)5441133
62LYDM8KOOTENAI-LIBBY DAM01-30-2023INFLOW (KAF)1769235975
63MACI1BIG LOST-MACKAY RESERVOIR NEAR MACKAY01-30-2023INFLOW (KAF)414592
64MAGI1BIG WOOD-MAGIC DAM01-30-2023INFLOW (KAF)8612072
65MCDW1COLUMBIA-MCNARY DAM01-30-2023INFLOW (KAF)323794584071
66MILI1SNAKE-AT MILNER01-30-2023DISCHARGE (KAF)485588
67MODO3DESCHUTES-AT MOODY NR BIGGS01-30-2023DISCHARGE (KAF)14891457102
68MONO3NF JOHN DAY-AT MONUMENT01-30-2023DISCHARGE (KAF)43857277
69MYKO3MCKAY CREEK-NEAR PILOT ROCK01-30-2023DISCHARGE (KAF)274265
70NACW1NACHES-NEAR NACHES01-30-2023DISCHARGE (KAF)34739788
71NOXM8CLARK FORK-NOXON RAPIDS DAM01-30-2023INFLOW (KAF)3390525664
72ORFI1CLEARWATER-AT OROFINO01-30-2023DISCHARGE (KAF)2708314886
73OWYO3OWYHEE-OWYHEE DAM01-30-2023INFLOW (KAF)425263162
74PARI1BOISE-NEAR PARMA01-30-2023DISCHARGE (KAF)386239161
75PARW1YAKIMA-NEAR PARKER01-30-2023DISCHARGE (KAF)53471974
76PATW1METHOW-NEAR PATEROS01-30-2023DISCHARGE (KAF)31147066
77PDTO3UMATILLA-AT PENDLETON01-30-2023DISCHARGE (KAF)18320290
78PESW1WENATCHEE-AT PESHASTIN01-30-2023DISCHARGE (KAF)64581979
79PIHI1PORTNEUF-AT POCATELLO01-30-2023DISCHARGE (KAF)7575101
80PITW1KLICKITAT-NEAR PITT01-30-2023DISCHARGE (KAF)46850293
81PLDI1SF SNAKE-PALISADES DAM01-30-2023INFLOW (KAF)1085137679
82PRTI1PRIEST-NEAR PRIEST RIVER01-30-2023DISCHARGE (KAF)49058484
83PRWW1COLUMBIA-PRIEST RAPIDS DAM01-30-2023INFLOW (KAF)200952941368
84RCCM8ROCK CREEK-NEAR CLINTON01-30-2023DISCHARGE (KAF)7013552
85REXI1HENRYS FORK-AT REXBURG01-30-2023DISCHARGE (KAF)50458586
86RIDI1WILLOW CREEK-RIRIE DAM01-30-2023INFLOW (KAF)4336119
87RILW1TIETON-RIMROCK LAKE NEAR RIMROCK01-30-2023INFLOW (KAF)12212994
88RRHW1COLUMBIA-ROCKY REACH DAM01-30-2023INFLOW (KAF)194592826669
89SATI1ST MARIES-NEAR SANTA01-30-2023DISCHARGE (KAF)146136107
90SERO3JOHN DAY-AT SERVICE CK01-30-2023DISCHARGE (KAF)60081973
91SHYI1SNAKE-NEAR SHELLEY01-30-2023DISCHARGE (KAF)13381219110
92SIFI1SNAKE-AB EAGLE ROCK NR IDAHO FALLS01-30-2023DISCHARGE (KAF)14201273112
93SJMI1ST JOE-AT ST MARIES01-30-2023STAGE (FT)MMM
94SNAI1SNAKE-AT BLACKFOOT01-30-2023DISCHARGE (KAF)1127917123
95SPDI1CLEARWATER-AT SPALDING01-30-2023DISCHARGE (KAF)4586493093
96SPOW1SPOKANE-AT SPOKANE01-30-2023DISCHARGE (KAF)2181255885
97SRGM8CLARK FORK-AT ST REGIS01-30-2023DISCHARGE (KAF)1255198163
98STRM8ST. REGIS-NEAR ST. REGIS01-30-2023DISCHARGE (KAF)14119672
99SWAI1SNAKE-BELOW SWAN FALLS01-30-2023DISCHARGE (KAF)1767190893
100TCHW1WALLA WALLA-NEAR TOUCHET01-30-2023DISCHARGE (KAF)20722791
101TDAO3COLUMBIA-THE DALLES DAM01-30-2023INFLOW (KAF)348434847772
102TEAI1TETON-NEAR ST. ANTHONY01-30-2023DISCHARGE (KAF)15819183
103TNAW1TEANAWAY-BELOW FORKS01-30-2023DISCHARGE (KAF)129126103
104TONW1OKANOGAN-NEAR TONASKET01-30-2023DISCHARGE (KAF)54788462
105TRYO3GRANDE RONDE-TROY01-30-2023DISCHARGE (KAF)1051113293
106UMAO3UMATILLA-NEAR UMATILLA01-30-2023DISCHARGE (KAF)14417980
107UMTW1YAKIMA-AT UMTANUM01-30-2023DISCHARGE (KAF)52656693
108UNDW1WHITE SALMON-NEAR UNDERWOOD01-30-2023DISCHARGE (KAF)33734399
109WANW1COLUMBIA-WANAPUM DAM01-30-2023INFLOW (KAF)201012933369
110WEII1SNAKE-AT WEISER01-30-2023DISCHARGE (KAF)3357378989
111WELW1COLUMBIA-WELLS DAM01-30-2023INFLOW (KAF)190722766769
112WGCM8MF FLATHEAD-NEAR WEST GLACIER01-30-2023DISCHARGE (KAF)54676072
113WHBI1SALMON-AT WHITEBIRD01-30-2023DISCHARGE (KAF)2064318065
114WRMO3MALHEUR-WARM SPRINGS DAM01-30-2023INFLOW (KAF)607777
115WSRI1WEISER-NEAR WEISER01-30-2023DISCHARGE (KAF)34639388